STARLINK-35428, 66115

Orbit data source: Space-Track

STARLINK-35428, 66115 is a payload satellite owned by SpaceX/Seattle (US) in LEO that was launched on Wed, 22 Oct 2025 UTC via an FALCON 9 launch vehicle from the Air Force Western Test Range (AFWTR). Payload-class satellites include a variety of spacecraft equipped with specific instruments for various scientific and technological missions. These include communications satellites like Starlink; space stations such as the ISS; scientific satellites like the Hubble; Earth observation satellites from companies like Planet Labs, Umbra, and HawkEye 360; GPS; miniature CubeSats for education and research; and military/defense satellites.

Loading next visibility...
Identifier
66115, 2025-237B
Orbit
LEO
Country
Flag of USUS
Related business
Manufacturer
SpaceX/Seattle
Mission
Operational Commercial Communications
Bus & Motor
STARLINK V2MO, Unknown motor
Mass
575 kg wet, ~530 kg dry
Launch date (UTC)
2025-10-22 (4 months ago)
Launch vehicle
FALCON 9
Launch site
Air Force Western Test Range (AFWTR)
Object type
Payload
Rocket body
Debris
Shape & HBR
Box + 2 Pan, 17.7 m
Radar Cross Section
36.964 m²

Expand to show TLE details & history
Last TLE update: 17 hours ago

TLE from 17 hours ago
0 STARLINK-35428
1 66115U 25237B   26061.34383966  .00021878  00000-0  74883-3 0  9994
2 66115  53.1595  73.9091 0001308  99.3812 260.7336 15.30190708 21477
Epoch: 2026-03-02T08:15Z
TLE epoch observation values (Epoch: 2026-03-02T08:15:07.746Z)
Latitude
-0.00008°
Longitude
149.98816°
Altitude
476.287 km
Speed
7.629 km/s
True Right ascension
04h 55m 38s
True Declination
0° 00' 00"
Sunlit
Object was in daylight at epoch
Visualization orbit readout
Latitude
Unknown
Longitude
Unknown
Altitude
Unknown
Speed
Unknown
Apparent Right ascension
Unknown
Apparent Declination
Unknown
Sunlit
N/A
Visualization observer readout
Local Sidereal Time
05:23:15
Azimuth
Unknown
Elevation
Unknown
Doppler factor
Unknown
Orbital elements
Apogee altitude
476.396 km
Perigee altitude
474.603 km
Semi-major axis
6,853.636 km
Eccentricity
0.00013
Inclination
53.1595°
RAAN
73.9091°
Arg. of periapsis
99.3812°
True anomaly
260.71881°
Mean anomaly
260.7336°
Eccentric anomaly
260.7262°
Mean motion
3.82527 °/min
Orbital period
94.11 mins
BSTAR
0.00074883
Loading maneuver chart data...
Computing Atmospheric mass density...
Loading historical data...
Loading historical data...
Loading historical data...
Loading historical data...
Loading historical data...
Loading historical data...
Loading historical data...

Documentation

Showing up to 5 results
|